Location: Newark
(6.1731°S, 35.7419°E)
Time: 15:49:26
(UTC+00:00)

Explorer 7 - Visible Passes

Search period start: 21 February 2020 00:00
Search period end: 02 March 2020 00:00
Orbit: 485 x 679 km, 50.3° (Epoch: 21 February)

Date Brightness Start Highest point End Pass type
(mag) Time Alt. Az. Time Alt. Az. Time Alt. Az.
25 Feb 7.9 17:04:01 10° N 17:06:12 25° NNE 17:06:12 25° NNE visible
26 Feb 6.4 17:08:25 10° NNW 17:12:10 73° NE 17:12:56 52° ESE visible
27 Feb 7.6 17:13:25 10° NW 17:17:01 44° SW 17:19:47 16° SSE visible
28 Feb 9.2 17:19:05 10° W 17:21:55 20° SW 17:24:45 10° S visible
01 Mar 10.0 02:02:47 10° SSE 02:05:22 14° SE 02:07:59 10° E visible
